QPF
0.00 0.00 0.00 0.00 0.00 0.00 0.00 0.00 0.00 0.00 0.00 0.00 0.00 0.00 0.00 0.00 0.00 0.00 0.00 0.00 0.00 0.00 0.00 0.00 0.00 0.00 0.00 0.00 0.00 0.00 0.00 0.00 0.00 0.00 0.00 0.00 0.00 0.00 0.00 0.00 0.00 0.00 0.00 0.01 0.01
0.00 0.00 0.00 0.00 0.00 0.00 0.00 0.00 0.00 0.00 0.00 0.00 0.00 0.00 0.00 0.00 0.00 0.00 0.00 0.00 0.00 0.00 0.00 0.00 0.00 0.00 0.00 0.00 0.00 0.00 0.00 0.00 0.00 0.00 0.00 0.00 0.00 0.00 0.00 0.00 0.00 0.00 0.01 0.01 0.01
0.00 0.00 0.00 0.00 0.00 0.00 0.00 0.00 0.00 0.00 0.00 0.00 0.00 0.00 0.00 0.00 0.00 0.00 0.00 0.00 0.00 0.00 0.00 0.00 0.00 0.00 0.00 0.00 0.00 0.00 0.00 0.00 0.00 0.00 0.00 0.00 0.00 0.00 0.00 0.00 0.00 0.00 0.01 0.01 0.01
0.00 0.00 0.00 0.00 0.00 0.00 0.00 0.00 0.00 0.00 0.00 0.00 0.00 0.00 0.00 0.00 0.00 0.00 0.00 0.00 0.00 0.00 0.00 0.00 0.00 0.00 0.00 0.00 0.00 0.00 0.00 0.00 0.00 0.00 0.00 0.00 0.00 0.00 0.00 0.00 0.00 0.00 0.00 0.00 0.00
0.00 0.00 0.00 0.00 0.00 0.00 0.00 0.00 0.00 0.00 0.00 0.00 0.00 0.00 0.00 0.00 0.00 0.00 0.00 0.00 0.00 0.00 0.00 0.00 0.00 0.00 0.00 0.00 0.00 0.00 0.00 0.00 0.00 0.00 0.00 0.00 0.00 0.00 0.00 0.00 0.00 0.00 0.00 0.00 0.00
0.00 0.00 0.00 0.00 0.00 0.00 0.00 0.00 0.00 0.00 0.00 0.00 0.00 0.00 0.00 0.00 0.00 0.00 0.00 0.00 0.00 0.00 0.00 0.00 0.00 0.00 0.00 0.00 0.00 0.00 0.00 0.00 0.00 0.00 0.00 0.00 0.00 0.00 0.00 0.00 0.00 0.00 0.00 0.00 0.00
0.00 0.00 0.00 0.00 0.00 0.00 0.00 0.00 0.00 0.00 0.00 0.00 0.00 0.00 0.00 0.00 0.00 0.00 0.00 0.00 0.00 0.00 0.00 0.00 0.00 0.00 0.00 0.00 0.00 0.00 0.00 0.00 0.00 0.00 0.00 0.00 0.00 0.00 0.00 0.00 0.00 0.00 0.00 0.00 0.00
0.00 0.00 0.00 0.00 0.00 0.00 0.00 0.00 0.00 0.00 0.00 0.00 0.00 0.00 0.00 0.00 0.00 0.00 0.00 0.00 0.00 0.00 0.00 0.00 0.00 0.00 0.00 0.00 0.00 0.00 0.00 0.00 0.00 0.00 0.00 0.00 0.00 0.00 0.00 0.00 0.00 0.00 0.00 0.00 0.00
0.00 0.00 0.00 0.00 0.00 0.00 0.00 0.00 0.00 0.00 0.00 0.00 0.00 0.00 0.00 0.00 0.00 0.00 0.00 0.00 0.00 0.00 0.00 0.00 0.00 0.00 0.00 0.00 0.00 0.00 0.00 0.00 0.00 0.00 0.00 0.00 0.00 0.00 0.00 0.00 0.00 0.00 0.00 0.00 0.00
0.00 0.00 0.00 0.00 0.00 0.00 0.00 0.00 0.00 0.00 0.00 0.00 0.00 0.00 0.00 0.00 0.00 0.00 0.00 0.00 0.00 0.00 0.00 0.00 0.00 0.00 0.00 0.00 0.00 0.00 0.00 0.00 0.00 0.00 0.00 0.00 0.00 0.00 0.00 0.00 0.00 0.00 0.00 0.00 0.00
0.00 0.00 0.00 0.00 0.00 0.00 0.00 0.00 0.00 0.00 0.00 0.00 0.00 0.00 0.00 0.00 0.00 0.00 0.00 0.00 0.00 0.00 0.00 0.00 0.00 0.00 0.00 0.00 0.00 0.00 0.00 0.00 0.00 0.00 0.00 0.00 0.00 0.00 0.00 0.00 0.00 0.00 0.00 0.00 0.00
0.00 0.00 0.00 0.00 0.00 0.00 0.00 0.00 0.00 0.00 0.00 0.00 0.00 0.00 0.00 0.00 0.00 0.00 0.00 0.00 0.00 0.00 0.00 0.00 0.00 0.00 0.00 0.00 0.00 0.00 0.00 0.00 0.00 0.00 0.00 0.00 0.00 0.00 0.00 0.00 0.00 0.00 0.00 0.00 0.00
0.00 0.00 0.00 0.00 0.00 0.00 0.00 0.00 0.00 0.00 0.00 0.00 0.00 0.00 0.00 0.00 0.00 0.00 0.00 0.00 0.00 0.00 0.00 0.00 0.00 0.00 0.00 0.00 0.00 0.00 0.00 0.00 0.00 0.00 0.00 0.00 0.00 0.00 0.00 0.00 0.00 0.00 0.00 0.00 0.00
0.00 0.00 0.00 0.00 0.00 0.00 0.00 0.00 0.00 0.00 0.00 0.00 0.00 0.00 0.00 0.00 0.00 0.00 0.00 0.00 0.00 0.00 0.00 0.00 0.00 0.00 0.00 0.00 0.00 0.00 0.00 0.00 0.00 0.00 0.00 0.00 0.00 0.00 0.00 0.00 0.00 0.00 0.00 0.00 0.00
0.00 0.00 0.00 0.00 0.00 0.00 0.00 0.00 0.00 0.00 0.00 0.00 0.00 0.00 0.00 0.00 0.00 0.00 0.00 0.00 0.00 0.00 0.00 0.00 0.00 0.00 0.00 0.00 0.00 0.00 0.00 0.00 0.00 0.00 0.00 0.00 0.00 0.00 0.00 0.00 0.00 0.00 0.00 0.00 0.00
0.00 0.00 0.00 0.00 0.00 0.00 0.00 0.00 0.00 0.00 0.00 0.00 0.00 0.00 0.00 0.00 0.00 0.00 0.00 0.00 0.00 0.00 0.00 0.00 0.00 0.00 0.00 0.00 0.00 0.00 0.00 0.00 0.00 0.00 0.00 0.00 0.00 0.00 0.00 0.00 0.00 0.00 0.00 0.00 0.00
0.00 0.00 0.00 0.00 0.00 0.00 0.00 0.00 0.00 0.00 0.00 0.00 0.00 0.00 0.00 0.00 0.00 0.00 0.00 0.00 0.00 0.00 0.00 0.00 0.00 0.00 0.00 0.00 0.00 0.00 0.00 0.00 0.00 0.00 0.00 0.00 0.00 0.00 0.00 0.00 0.00 0.00 0.00 0.00 0.00
0.00 0.00 0.00 0.00 0.00 0.00 0.00 0.00 0.00 0.00 0.00 0.00 0.00 0.00 0.00 0.00 0.00 0.00 0.00 0.00 0.00 0.00 0.00 0.00 0.00 0.00 0.00 0.00 0.00 0.00 0.00 0.00 0.00 0.00 0.00 0.00 0.00 0.00 0.00 0.00 0.00 0.00 0.00 0.00 0.00
0.00 0.00 0.00 0.00 0.00 0.00 0.00 0.00 0.00 0.00 0.00 0.00 0.00 0.00 0.00 0.00 0.00 0.00 0.00 0.00 0.00 0.00 0.00 0.00 0.00 0.00 0.00 0.00 0.00 0.00 0.00 0.00 0.00 0.00 0.00 0.00 0.00 0.00 0.00 0.00 0.00 0.00 0.00 0.00 0.00
0.00 0.00 0.00 0.00 0.00 0.00 0.00 0.00 0.00 0.00 0.00 0.00 0.00 0.00 0.00 0.00 0.00 0.00 0.00 0.00 0.00 0.00 0.00 0.00 0.00 0.00 0.00 0.00 0.00 0.00 0.00 0.00 0.00 0.00 0.00 0.00 0.00 0.00 0.00 0.00 0.00 0.00 0.00 0.00 0.00
0.00 0.00 0.00 0.00 0.00 0.00 0.00 0.00 0.00 0.00 0.00 0.00 0.00 0.00 0.00 0.00 0.00 0.00 0.00 0.00 0.00 0.00 0.00 0.00 0.00 0.00 0.00 0.00 0.00 0.00 0.00 0.00 0.00 0.00 0.00 0.00 0.00 0.00 0.00 0.00 0.00 0.00 0.00 0.00 0.00
0.00 0.00 0.00 0.00 0.00 0.00 0.00 0.00 0.00 0.00 0.00 0.00 0.00 0.00 0.00 0.00 0.00 0.00 0.00 0.00 0.00 0.00 0.00 0.00 0.00 0.00 0.00 0.00 0.00 0.00 0.00 0.00 0.00 0.00 0.00 0.00 0.00 0.00 0.00 0.00 0.00 0.00 0.00 0.00 0.00
0.00 0.00 0.00 0.00 0.00 0.00 0.00 0.00 0.00 0.00 0.00 0.00 0.00 0.00 0.00 0.00 0.00 0.00 0.00 0.00 0.00 0.00 0.00 0.00 0.00 0.00 0.00 0.00 0.00 0.00 0.00 0.00 0.00 0.00 0.00 0.00 0.00 0.00 0.00 0.00 0.00 0.00 0.00 0.00 0.00
0.00 0.00 0.00 0.00 0.00 0.00 0.00 0.00 0.00 0.00 0.00 0.00 0.00 0.00 0.00 0.00 0.00 0.00 0.00 0.00 0.00 0.00 0.00 0.00 0.00 0.00 0.00 0.00 0.00 0.00 0.00 0.00 0.00 0.00 0.00 0.00 0.00 0.00 0.00 0.00 0.00 0.00 0.00 0.00 0.00
0.00 0.00 0.00 0.00 0.00 0.00 0.00 0.00 0.00 0.00 0.00 0.00 0.00 0.00 0.00 0.00 0.00 0.00 0.00 0.00 0.00 0.00 0.00 0.00 0.00 0.00 0.00 0.00 0.00 0.00 0.00 0.00 0.00 0.00 0.00 0.00 0.00 0.00 0.00 0.00 0.00 0.00 0.00 0.00 0.00
0.00 0.00 0.00 0.00 0.00 0.00 0.00 0.00 0.00 0.00 0.00 0.00 0.00 0.00 0.00 0.00 0.00 0.00 0.00 0.00 0.00 0.00 0.00 0.00 0.00 0.00 0.00 0.00 0.00 0.00 0.00 0.00 0.00 0.00 0.00 0.00 0.00 0.00 0.00 0.00 0.00 0.00 0.00 0.00 0.00
0.00 0.00 0.00 0.00 0.00 0.00 0.00 0.00 0.00 0.00 0.00 0.00 0.00 0.00 0.00 0.00 0.00 0.00 0.00 0.00 0.00 0.00 0.00 0.00 0.00 0.00 0.00 0.00 0.00 0.00 0.00 0.00 0.00 0.00 0.00 0.00 0.00 0.00 0.00 0.00 0.00 0.00 0.00 0.00 0.00
MSLP
1016.78 1016.42 1016.12 1015.69 1015.13 1014.72 1014.35 1013.90 1013.45 1013.02 1012.60 1012.12 1011.59 1011.19 1010.83 1010.31 1009.70 1009.91 1008.51 1005.97 1006.12 1005.98 1006.09 1005.95 1005.91 1006.42 1006.71 1007.40 1007.39 1007.37 1008.62 1009.13 1009.27 1009.24 1009.24 1009.83 1010.50 1011.04 1011.38 1011.94 1012.36 1012.42 1013.19 1014.59 1015.65
1017.08 1016.54 1016.14 1015.76 1015.28 1014.73 1014.20 1013.74 1013.28 1012.77 1012.44 1012.07 1011.56 1011.13 1010.71 1010.38 1009.71 1008.30 1005.30 1005.21 1005.89 1006.06 1006.24 1006.30 1006.43 1006.52 1007.14 1007.56 1007.80 1008.02 1008.57 1008.25 1008.05 1008.36 1008.85 1010.09 1010.68 1011.19 1012.05 1012.65 1013.23 1013.54 1014.46 1015.24 1015.97
1017.22 1016.82 1016.24 1015.76 1015.29 1014.79 1014.28 1013.69 1013.17 1012.71 1012.27 1011.88 1011.45 1011.02 1010.70 1010.45 1009.39 1005.88 1004.49 1004.80 1005.76 1005.87 1005.94 1006.23 1006.26 1006.54 1006.82 1007.16 1007.53 1007.71 1007.49 1007.23 1007.50 1008.35 1009.03 1010.04 1010.84 1011.48 1012.37 1013.13 1013.43 1013.53 1014.52 1015.46 1016.17
1017.30 1016.88 1016.42 1015.85 1015.29 1014.72 1014.15 1013.67 1013.18 1012.67 1012.19 1011.76 1011.41 1010.96 1010.69 1010.31 1008.20 1004.50 1004.38 1004.30 1005.26 1005.39 1005.92 1005.99 1006.03 1006.12 1006.29 1006.50 1006.31 1006.78 1006.45 1006.18 1007.45 1008.48 1008.98 1009.89 1010.86 1011.83 1012.11 1012.64 1013.43 1014.19 1014.89 1015.58 1016.32
1017.41 1016.88 1016.41 1015.93 1015.35 1014.66 1014.03 1013.49 1013.05 1012.59 1012.09 1011.66 1011.42 1011.02 1010.62 1009.66 1006.78 1004.23 1004.47 1004.71 1004.96 1005.24 1005.50 1005.50 1005.46 1005.70 1006.20 1005.71 1005.30 1005.98 1006.08 1006.81 1007.19 1008.38 1009.07 1009.89 1011.07 1011.47 1012.40 1012.99 1013.77 1014.56 1015.29 1015.80 1016.47
1017.53 1016.89 1016.34 1015.82 1015.28 1014.61 1013.91 1013.26 1012.76 1012.35 1011.92 1011.52 1011.35 1011.18 1010.55 1008.70 1004.83 1004.34 1004.58 1004.71 1004.79 1005.07 1005.06 1005.18 1005.00 1004.98 1005.36 1005.61 1005.49 1005.43 1006.10 1007.32 1008.01 1008.68 1009.49 1009.93 1011.15 1011.56 1012.95 1013.31 1013.99 1014.58 1015.29 1015.92 1016.31
1017.57 1016.92 1016.20 1015.61 1015.02 1014.42 1013.68 1013.06 1012.46 1011.99 1011.66 1011.33 1011.29 1011.14 1010.06 1006.46 1004.74 1004.61 1004.70 1004.74 1004.62 1004.80 1004.88 1004.76 1004.70 1004.98 1005.06 1005.57 1005.53 1006.06 1007.44 1008.32 1008.92 1008.96 1009.56 1010.34 1011.61 1012.10 1012.50 1013.18 1013.96 1014.48 1015.09 1015.67 1016.01
1017.58 1016.93 1016.18 1015.40 1014.75 1014.05 1013.34 1012.54 1012.10 1011.55 1011.36 1011.23 1011.21 1010.92 1008.66 1005.22 1004.73 1004.83 1004.78 1004.67 1004.46 1004.57 1004.61 1004.54 1004.65 1004.86 1004.98 1005.69 1006.57 1007.16 1008.40 1008.97 1009.25 1009.47 1009.81 1009.99 1011.46 1012.12 1012.69 1013.25 1013.92 1014.41 1014.74 1015.20 1015.54
1017.43 1016.86 1016.16 1015.30 1014.47 1013.71 1012.83 1012.05 1011.41 1011.04 1011.16 1011.13 1011.14 1010.51 1007.54 1004.91 1004.62 1004.00 1004.48 1004.70 1004.36 1004.39 1004.40 1004.33 1004.48 1005.21 1005.40 1006.04 1007.63 1008.06 1008.58 1008.78 1009.23 1009.09 1009.61 1010.34 1011.32 1011.84 1012.75 1013.18 1013.76 1014.18 1014.39 1014.57 1015.13
1017.27 1016.67 1016.00 1015.21 1014.26 1013.36 1012.34 1011.30 1011.13 1011.16 1011.25 1011.12 1010.57 1010.13 1006.76 1004.69 1003.77 1003.63 1003.87 1004.35 1004.40 1004.41 1004.58 1004.62 1005.30 1006.00 1006.71 1006.98 1007.72 1008.21 1008.60 1008.61 1008.37 1008.59 1009.07 1010.28 1010.69 1011.38 1012.22 1012.69 1013.08 1013.61 1014.06 1014.24 1014.42
1017.17 1016.47 1015.77 1014.93 1014.05 1013.10 1012.12 1011.08 1011.37 1011.29 1010.64 1009.30 1008.44 1007.35 1005.66 1004.21 1003.46 1003.57 1003.69 1004.30 1004.66 1004.73 1005.21 1005.57 1006.32 1006.40 1006.44 1006.85 1006.94 1007.23 1007.65 1007.93 1007.77 1007.80 1009.08 1009.65 1010.33 1010.65 1011.69 1012.41 1012.63 1012.88 1013.25 1013.54 1013.65
1017.06 1016.38 1015.52 1014.73 1013.70 1012.95 1012.59 1011.89 1011.86 1012.14 1010.51 1007.77 1006.94 1006.38 1005.18 1004.68 1004.47 1003.54 1003.50 1004.61 1004.92 1005.52 1005.93 1006.49 1006.20 1005.79 1006.04 1006.43 1006.92 1007.29 1007.46 1006.85 1006.86 1006.87 1008.59 1009.68 1010.50 1010.69 1010.85 1010.71 1011.18 1011.70 1012.13 1012.63 1013.23
1017.01 1016.31 1015.46 1014.43 1013.30 1012.97 1013.24 1011.88 1011.46 1011.42 1010.82 1006.82 1005.49 1004.81 1004.14 1004.35 1004.25 1003.45 1003.62 1004.22 1005.02 1005.86 1006.16 1006.38 1005.78 1005.24 1005.78 1006.20 1006.54 1006.53 1006.90 1006.31 1007.00 1007.60 1008.55 1009.50 1011.05 1011.26 1011.04 1011.13 1011.15 1011.30 1011.54 1012.11 1012.48
1016.83 1016.25 1015.65 1014.52 1013.43 1014.03 1012.72 1011.55 1011.32 1011.32 1010.06 1006.35 1004.44 1002.80 1003.16 1003.23 1003.38 1002.85 1003.18 1003.94 1004.86 1005.44 1006.28 1006.23 1005.45 1005.32 1005.53 1005.60 1005.96 1006.05 1005.16 1005.67 1006.45 1007.43 1008.58 1009.27 1011.08 1010.92 1010.61 1010.67 1010.40 1010.56 1010.92 1011.11 1011.47
1016.62 1016.15 1015.84 1015.75 1015.44 1014.37 1011.98 1011.33 1010.74 1010.54 1009.10 1004.34 1002.70 1001.14 1001.52 1002.43 1002.11 1002.24 1002.55 1003.44 1004.36 1005.14 1006.05 1005.46 1005.00 1004.79 1004.80 1004.23 1005.05 1005.05 1004.67 1005.45 1005.78 1007.83 1008.85 1009.87 1010.47 1009.65 1009.80 1010.04 1009.24 1009.25 1009.63 1010.07 1010.34
1016.29 1015.96 1015.69 1015.52 1015.52 1013.01 1012.19 1011.18 1010.72 1010.39 1007.63 1003.66 1001.77 1001.39 1001.82 1002.02 1001.93 1002.22 1002.69 1003.21 1004.03 1005.01 1005.36 1005.04 1004.62 1004.21 1003.51 1003.53 1004.10 1004.23 1005.05 1005.92 1007.39 1008.44 1009.89 1009.09 1009.73 1009.30 1008.78 1007.29 1007.03 1008.06 1008.57 1008.88 1009.32
1015.91 1015.56 1015.46 1015.21 1013.65 1012.37 1012.19 1011.40 1010.99 1008.82 1005.86 1003.25 1001.97 1001.64 1001.43 1001.91 1002.26 1002.22 1002.91 1003.63 1004.21 1005.41 1005.84 1005.23 1004.31 1003.63 1003.13 1003.42 1003.64 1004.36 1005.72 1007.02 1008.66 1009.56 1009.67 1008.91 1009.33 1007.53 1005.97 1005.31 1005.13 1005.65 1006.69 1007.27 1008.09
1015.31 1014.82 1013.68 1013.14 1012.76 1013.15 1012.75 1011.94 1010.10 1006.76 1004.90 1002.92 1001.87 1001.71 1001.62 1001.56 1002.30 1002.36 1002.83 1003.72 1004.24 1004.64 1005.75 1005.78 1004.52 1003.13 1002.63 1002.85 1003.36 1004.30 1005.31 1006.98 1008.69 1010.16 1009.62 1009.21 1007.78 1005.48 1004.58 1004.01 1003.87 1004.29 1004.97 1006.23 1007.27
1015.05 1014.29 1013.53 1011.61 1011.97 1013.04 1013.05 1011.28 1007.61 1005.95 1004.05 1003.09 1002.17 1001.96 1001.95 1001.56 1001.72 1002.40 1002.81 1003.13 1003.40 1003.95 1004.79 1005.37 1004.52 1002.71 1002.09 1001.94 1002.88 1004.19 1005.31 1006.15 1008.20 1009.81 1009.86 1008.57 1006.82 1005.04 1004.14 1003.60 1003.99 1004.68 1005.59 1005.90 1006.38
1015.48 1015.00 1012.49 1010.61 1011.31 1012.34 1012.22 1009.24 1006.95 1005.16 1003.56 1002.72 1002.62 1001.99 1001.93 1001.71 1001.92 1002.05 1002.71 1002.24 1002.82 1003.18 1003.53 1004.48 1004.53 1002.98 1002.08 1001.99 1002.65 1003.26 1004.38 1006.35 1008.07 1009.50 1009.95 1008.79 1007.52 1006.32 1005.28 1004.67 1004.69 1005.28 1005.58 1005.67 1006.10
1015.65 1014.95 1010.80 1010.40 1010.80 1011.63 1010.40 1008.70 1006.63 1004.59 1003.94 1003.29 1002.75 1002.43 1002.20 1001.98 1001.87 1002.11 1001.98 1001.56 1001.76 1002.58 1003.22 1004.24 1004.67 1003.73 1002.75 1002.40 1002.74 1003.59 1004.50 1006.24 1007.73 1008.86 1009.60 1009.21 1007.85 1005.62 1005.38 1005.37 1004.99 1005.26 1005.50 1005.67 1006.14
1016.09 1014.84 1011.06 1010.49 1011.50 1010.84 1009.90 1008.06 1006.28 1004.76 1003.90 1003.77 1003.16 1002.89 1002.48 1002.24 1002.09 1001.97 1001.65 1000.95 1000.66 1001.59 1003.13 1003.84 1004.57 1004.79 1003.68 1002.50 1002.57 1002.93 1003.75 1004.97 1007.32 1009.06 1009.38 1008.67 1006.98 1005.69 1005.49 1005.77 1005.71 1006.08 1006.16 1006.15 1006.54
1016.49 1015.06 1011.41 1011.09 1011.35 1010.96 1009.44 1007.83 1006.42 1005.30 1004.56 1004.09 1003.78 1003.28 1002.89 1002.90 1002.79 1002.23 1001.39 1000.44 1000.24 1001.02 1001.78 1003.28 1004.29 1004.70 1004.20 1003.50 1002.77 1002.91 1003.64 1004.80 1006.02 1007.30 1008.39 1008.45 1007.06 1006.12 1005.95 1006.45 1006.42 1006.33 1006.88 1007.19 1007.63
1016.89 1015.91 1013.19 1011.95 1011.22 1010.85 1009.94 1008.25 1006.81 1005.36 1005.10 1004.72 1004.30 1003.91 1003.73 1003.55 1003.15 1002.58 1001.83 1000.67 1000.43 1000.27 1000.68 1001.63 1003.40 1003.77 1003.67 1003.44 1002.98 1003.10 1003.38 1004.12 1005.01 1006.69 1007.55 1007.29 1006.60 1006.64 1006.92 1006.88 1007.29 1007.41 1007.81 1008.48 1008.82
1016.81 1016.15 1015.00 1013.93 1012.68 1012.07 1010.81 1008.31 1007.02 1005.67 1004.73 1004.50 1004.53 1004.11 1004.18 1004.21 1003.63 1002.98 1002.12 1001.55 1000.34 999.99 1001.04 1001.68 1003.03 1003.46 1003.09 1002.60 1002.64 1002.44 1002.70 1003.35 1004.11 1004.48 1005.55 1005.42 1005.97 1005.67 1006.11 1006.42 1006.81 1007.59 1008.53 1009.01 1009.77
1016.89 1016.26 1015.26 1014.41 1013.29 1012.25 1010.44 1008.61 1007.07 1005.98 1005.00 1004.31 1004.32 1004.01 1004.06 1003.87 1003.26 1002.74 1002.41 1002.12 1001.60 1001.11 1001.93 1002.08 1002.80 1003.19 1003.24 1002.47 1002.21 1002.27 1001.94 1002.23 1002.90 1003.42 1004.09 1004.42 1005.03 1004.54 1005.90 1006.95 1007.54 1007.99 1008.63 1009.33 1009.88
1016.29 1015.63 1015.47 1014.46 1013.54 1012.73 1011.41 1010.10 1008.04 1006.73 1004.89 1004.24 1004.16 1004.19 1003.81 1003.35 1003.09 1002.51 1002.40 1002.39 1002.10 1002.30 1002.73 1002.91 1002.90 1003.65 1003.42 1002.53 1002.54 1002.21 1000.89 1001.29 1001.74 1001.99 1002.65 1003.76 1003.72 1004.40 1006.07 1006.72 1006.99 1007.70 1008.37 1009.07 1009.78
Thickness
5745 5749 5752 5757 5762 5767 5771 5776 5781 5786 5792 5797 5803 5809 5815 5821 5828 5827 5832 5859 5863 5867 5867 5865 5861 5852 5848 5833 5840 5838 5788 5776 5783 5786 5794 5801 5788 5799 5800 5788 5786 5790 5782 5772 5766
5741 5747 5751 5755 5761 5766 5772 5777 5782 5788 5793 5797 5804 5810 5816 5821 5827 5832 5868 5870 5867 5866 5859 5850 5843 5845 5829 5827 5825 5809 5784 5795 5817 5814 5805 5800 5795 5795 5784 5780 5776 5776 5775 5771 5765
5738 5742 5748 5754 5759 5765 5770 5777 5782 5788 5794 5799 5804 5810 5815 5820 5825 5845 5876 5874 5868 5868 5864 5858 5852 5842 5827 5829 5822 5815 5802 5821 5824 5823 5816 5802 5798 5798 5782 5771 5779 5776 5773 5770 5764
5735 5740 5745 5751 5757 5764 5770 5776 5781 5787 5794 5799 5804 5809 5814 5819 5799 5867 5876 5879 5872 5872 5862 5854 5847 5836 5829 5824 5835 5815 5834 5839 5830 5826 5817 5806 5804 5790 5793 5788 5791 5783 5779 5773 5764
5731 5737 5743 5748 5754 5761 5769 5776 5781 5787 5794 5799 5804 5808 5814 5813 5826 5874 5875 5875 5875 5869 5857 5850 5844 5840 5825 5834 5841 5832 5836 5838 5840 5829 5821 5816 5799 5798 5791 5795 5793 5786 5779 5773 5766
5726 5733 5740 5746 5753 5759 5767 5775 5781 5787 5793 5799 5803 5806 5811 5800 5865 5872 5872 5873 5870 5864 5859 5856 5852 5856 5841 5836 5836 5844 5841 5831 5831 5827 5823 5810 5803 5802 5793 5798 5790 5786 5780 5775 5770
5721 5729 5737 5744 5751 5758 5766 5774 5781 5788 5793 5799 5802 5806 5807 5824 5865 5869 5870 5869 5873 5866 5856 5865 5866 5853 5853 5836 5849 5841 5815 5819 5820 5823 5818 5817 5795 5790 5803 5802 5791 5788 5784 5781 5777
5715 5723 5732 5741 5749 5757 5766 5774 5781 5788 5793 5797 5800 5803 5803 5859 5865 5863 5867 5866 5875 5873 5869 5872 5870 5857 5854 5852 5831 5818 5807 5783 5812 5818 5820 5819 5780 5801 5807 5800 5791 5790 5790 5786 5783
5709 5718 5727 5737 5746 5756 5766 5774 5782 5788 5790 5794 5796 5799 5806 5859 5852 5866 5866 5855 5866 5869 5871 5875 5867 5846 5846 5822 5796 5801 5779 5791 5797 5824 5820 5813 5791 5809 5809 5803 5794 5793 5792 5792 5787
5705 5712 5722 5731 5742 5753 5764 5775 5779 5782 5786 5790 5797 5790 5823 5834 5854 5863 5867 5862 5854 5856 5851 5851 5834 5818 5813 5806 5778 5789 5789 5795 5796 5820 5822 5808 5804 5813 5812 5808 5804 5800 5796 5794 5792
5700 5708 5716 5727 5738 5748 5760 5771 5771 5773 5784 5792 5800 5804 5824 5846 5859 5853 5861 5852 5849 5842 5817 5830 5810 5798 5816 5817 5821 5820 5809 5802 5816 5833 5812 5809 5808 5818 5814 5809 5806 5806 5802 5801 5800
5694 5703 5712 5721 5734 5743 5748 5759 5760 5762 5761 5802 5809 5814 5832 5837 5822 5844 5860 5831 5828 5810 5820 5810 5798 5825 5831 5827 5820 5814 5807 5811 5824 5838 5818 5807 5805 5819 5822 5823 5822 5817 5813 5810 5806
5687 5695 5706 5717 5730 5735 5732 5752 5761 5765 5755 5796 5813 5816 5827 5833 5820 5831 5848 5835 5821 5808 5809 5798 5819 5836 5829 5822 5818 5817 5808 5814 5810 5824 5819 5812 5793 5801 5818 5821 5824 5824 5824 5819 5814
5679 5688 5696 5708 5722 5717 5731 5747 5756 5759 5739 5777 5802 5823 5832 5835 5821 5850 5852 5839 5823 5806 5807 5806 5827 5827 5826 5821 5821 5804 5837 5833 5823 5816 5784 5816 5764 5793 5811 5814 5824 5827 5825 5824 5823
5670 5679 5685 5689 5695 5705 5734 5740 5752 5754 5703 5795 5807 5847 5838 5825 5835 5836 5857 5840 5814 5814 5808 5806 5822 5823 5819 5831 5834 5820 5847 5836 5835 5802 5797 5797 5777 5793 5814 5806 5822 5832 5834 5832 5832
5660 5668 5676 5682 5685 5709 5719 5731 5740 5712 5702 5776 5808 5806 5810 5821 5829 5832 5832 5843 5834 5816 5820 5816 5837 5836 5840 5849 5844 5850 5836 5821 5803 5791 5767 5796 5788 5790 5806 5829 5841 5842 5841 5841 5838
5649 5659 5665 5673 5686 5703 5709 5717 5698 5687 5763 5773 5788 5799 5808 5802 5810 5814 5809 5802 5788 5772 5778 5806 5818 5840 5853 5834 5844 5833 5805 5764 5770 5762 5766 5798 5786 5810 5838 5855 5860 5859 5855 5853 5848
5638 5649 5666 5676 5682 5685 5691 5692 5680 5727 5750 5782 5793 5792 5793 5803 5800 5808 5801 5792 5802 5803 5777 5772 5779 5828 5851 5837 5826 5824 5812 5767 5762 5749 5772 5788 5791 5825 5853 5871 5877 5875 5873 5864 5853
5621 5636 5651 5673 5673 5671 5672 5666 5714 5728 5764 5766 5779 5770 5776 5795 5796 5798 5789 5800 5812 5808 5789 5770 5783 5841 5852 5858 5846 5824 5804 5821 5773 5769 5766 5782 5813 5846 5856 5862 5867 5865 5863 5860 5859
5595 5608 5636 5661 5662 5659 5656 5687 5708 5739 5762 5766 5750 5768 5757 5778 5780 5781 5776 5809 5806 5816 5823 5804 5786 5828 5846 5856 5848 5836 5833 5796 5775 5769 5762 5773 5788 5795 5836 5846 5854 5855 5855 5861 5862
5570 5587 5632 5642 5648 5644 5655 5668 5704 5737 5748 5747 5747 5754 5760 5769 5773 5768 5781 5811 5821 5811 5819 5804 5793 5802 5831 5821 5818 5819 5810 5792 5787 5771 5753 5753 5773 5823 5836 5839 5846 5852 5856 5857 5858
5535 5562 5611 5620 5617 5627 5643 5671 5701 5723 5736 5736 5746 5750 5755 5763 5766 5771 5772 5801 5828 5815 5792 5803 5784 5772 5793 5830 5841 5834 5820 5811 5774 5774 5762 5763 5780 5837 5837 5839 5843 5844 5849 5853 5856
5504 5526 5579 5594 5599 5614 5643 5667 5686 5705 5714 5720 5727 5742 5751 5750 5746 5764 5781 5811 5819 5812 5796 5799 5767 5758 5771 5800 5820 5822 5819 5804 5794 5783 5763 5762 5776 5830 5832 5831 5839 5841 5842 5842 5844
5479 5498 5534 5564 5583 5609 5623 5641 5657 5696 5699 5710 5717 5727 5731 5738 5748 5754 5768 5796 5811 5819 5820 5818 5770 5783 5774 5784 5804 5808 5816 5811 5803 5767 5771 5776 5803 5816 5816 5823 5828 5833 5833 5827 5826
5456 5475 5503 5521 5554 5563 5586 5629 5646 5667 5693 5697 5697 5713 5718 5719 5736 5744 5767 5776 5802 5817 5803 5799 5773 5777 5793 5810 5810 5817 5819 5808 5803 5804 5792 5806 5801 5817 5823 5828 5833 5831 5825 5824 5818
5442 5460 5481 5502 5523 5550 5583 5615 5637 5658 5678 5683 5691 5710 5707 5712 5733 5744 5759 5766 5769 5789 5783 5784 5775 5780 5779 5802 5805 5805 5816 5813 5816 5807 5815 5808 5807 5835 5824 5822 5822 5825 5823 5817 5813
5435 5455 5470 5487 5508 5532 5557 5578 5614 5636 5670 5686 5692 5697 5702 5719 5738 5753 5755 5759 5768 5769 5767 5768 5764 5756 5764 5791 5789 5775 5805 5813 5818 5823 5818 5795 5825 5828 5816 5821 5825 5823 5822 5816 5811